Regional Weather Roundup
Issued by NWS Northern Indiana

Home | Current Version | Previous Version | Text Only | Print | Product List | Glossary Off
Versions: 1 2 3 4 5 6 7 8 9 10 11 12 13 14 15 16 17 18 19 20 21 22 23 24 25 26 27 28 29 30 31 32 33 34 35 36 37 38 39 40 41 42 43 44 45 46 47 48 49 50

000
ASUS43 KIWX 280700
RWRIWX

KIWX WEATHER ROUNDUP
NATIONAL WEATHER SERVICE NORTHERN INDIANA
300 AM EDT WED JUN 28 2017

NOTE: "FAIR" INDICATES FEW OR NO CLOUDS BELOW 12,000 FEET WITH NO
SIGNIFICANT WEATHER AND/OR OBSTRUCTIONS TO VISIBILITY.

* THESE STATIONS ARE NOT UNDER NWS QUALITY CONTROL. THEY ALSO MAY NOT
  REPORT WEATHER SUCH AS PRECIPITATION OR FOG.

INZ001>027-280800-
NORTHERN INDIANA

CITY           SKY/WX    TMP DP  RH WIND       PRES   REMARKS
MICHIGAN CITY* CLEAR     59  46  63 S6        30.08R
SOUTH BEND     PTCLDY    55  45  68 SW3       30.09S
GOSHEN         CLEAR     53  46  77 S3        30.09S
MONTICELLO*    CLEAR     61  49  64 S5        30.09S
FORT WAYNE     PTCLDY    57  50  77 CALM      30.12R
PERU/GRISSOM   CLEAR     56  49  76 S7        30.09S

$$
INZ028>050-280800-
CENTRAL INDIANA

CITY           SKY/WX    TMP DP  RH WIND       PRES   REMARKS
LAFAYETTE      CLEAR     54  50  86 CALM      30.09S
KOKOMO*        CLEAR     56  50  80 S3        30.11F
MUNCIE*        CLEAR     59  47  64 S3        30.12S
INDIANAPOLIS   CLEAR     58  48  69 S3        30.10F

$$
MIZ043>046-050>051-056>058-064>065-071>073-077>080-280800-
SOUTHWEST LOWER MICHIGAN

CITY           SKY/WX    TMP DP  RH WIND       PRES   REMARKS
BATTLE CREEK   CLEAR     56  45  66 CALM      30.08F
BENTON HARBOR  CLEAR     57  44  62 S3        30.07S
COLDWATER*     CLEAR     51  49  92 CALM      30.09S
HILLSDALE*     CLEAR     46  43  87 CALM      30.10R
HOLLAND        CLEAR     54  46  74 S6        30.06S
GRAND RAPIDS   CLEAR     55  49  80 S7        30.05F
KALAMAZOO      CLEAR     54  46  74 S5        30.08S
STURGIS*       CLEAR     53  46  79 CALM      30.09R
THREE RIVERS*  FAIR      52  48  87 CALM      30.09S

$$
OHZ001>008-015>018-024>025-280800-
NORTHWEST OHIO

CITY           SKY/WX    TMP DP  RH WIND       PRES   REMARKS
DEFIANCE       PTCLDY    51  48  89 CALM      30.10S
FINDLAY        CLEAR     57  47  69 SW3       30.10S
TOLEDO EXPRESS CLEAR     50  50 100 CALM      30.09S
TOLEDO METCALF CLEAR     57  51  80 SW3       30.10S
LIMA           CLEAR     57  48  72 S5        30.12S

$$
AND FOR LAKE MICHIGAN COASTAL AND OPEN LAKE BUOY OBSERVATIONS

STATION/POSITION TEMP    WIND        PRES    VSBY  WAVE
                 AIR SEA DIR/SP/G                  HT/PER
                 (F)     (DEG/KT/KT) (MB)    (MI)  (FT/S)
CALUMET HARBOR    64     160/  5/  7 1017.3S
MICHIGAN CITY     63     160/ 12/ 14   N/A
BURNS HARBOR      63     190/  9/ 11 1018.6R
SOUTH LAKE BUOY   64 61  170/ 12/ 14 1017.1          1/ 3
4 MI NW BRIDGMAN  65 69  200/ 12/ 16 1018.3R         2/ 2
MICHIGAN CITY     63 66  180/ 12/ 14   N/A           1

$$
&&




USA.gov is the U.S. government's official web portal to all federal, state and local government web resources and services.